Theta_e
331 330 329 329 328 328 329 329 328 328 328 328 328 326 326 327 327 327 328 328 329 329 328 328 328 328 328 328 329 329 330 330 330 330 330 330 330 330 330 330 330 329 330 331 330 330 331 330 329 330 330 330 332 333 333 332 331 331 331 330 329 328 327
328 328 328 328 328 328 328 328 328 328 328 327 326 324 324 325 325 326 326 325 326 325 325 326 326 324 325 327 328 328 329 329 329 329 330 330 329 329 329 330 330 329 330 330 329 329 331 330 329 329 330 330 330 331 332 332 332 332 331 332 331 329 328
327 327 327 327 327 328 327 327 326 326 325 324 323 322 322 324 323 323 322 322 322 322 322 324 323 322 323 325 326 326 326 328 329 329 329 329 329 329 329 329 330 329 329 329 329 329 330 331 330 330 330 330 329 330 331 332 332 332 332 331 331 331 329
327 327 326 326 326 326 325 325 324 324 323 322 321 320 320 321 320 319 319 320 321 322 322 322 320 320 322 323 323 322 323 326 328 328 328 328 328 328 328 328 329 329 328 329 328 328 329 329 329 329 329 330 329 329 330 331 331 332 332 331 331 331 332
325 324 325 324 324 323 323 322 322 321 320 319 319 318 318 318 317 317 318 318 319 319 320 319 319 319 320 320 320 319 319 323 326 326 325 325 324 325 326 327 328 328 328 328 328 328 328 328 328 329 329 329 329 329 330 331 331 331 332 332 331 331 332
323 322 322 321 321 320 319 319 319 318 318 317 317 317 316 317 317 317 317 317 317 317 318 318 318 318 318 318 318 318 318 320 322 322 321 321 321 321 322 324 326 326 326 327 327 327 327 327 328 328 328 328 329 329 330 330 330 331 331 332 332 331 331
320 319 319 318 318 318 317 317 317 317 316 316 316 316 316 316 316 316 316 316 316 316 316 316 316 316 316 317 317 317 317 318 319 319 319 319 319 318 319 322 324 324 323 324 324 325 326 327 328 328 328 327 327 328 329 329 330 330 331 332 331 331 331
317 317 317 316 316 316 316 316 316 316 316 315 315 315 315 315 315 315 315 315 315 315 315 315 315 315 315 315 315 315 316 316 317 317 317 317 317 317 318 319 321 321 321 322 322 323 324 326 328 327 328 328 327 328 328 328 329 330 331 331 330 331 331
316 315 315 315 315 315 315 315 315 315 315 315 315 314 314 314 314 314 314 314 314 313 313 313 313 313 313 313 313 314 314 314 315 315 315 315 315 316 316 317 318 318 319 320 321 321 322 323 325 324 325 327 328 329 328 328 329 329 330 330 330 331 332
314 314 314 314 314 314 314 315 314 314 314 314 314 313 313 313 313 313 313 312 312 312 312 312 312 312 312 312 312 312 312 313 313 313 313 313 314 314 314 315 315 316 317 317 318 318 318 319 319 321 322 325 326 328 328 328 328 328 328 329 330 330 332
313 313 314 313 314 314 314 314 314 313 313 313 312 312 312 312 312 312 311 311 311 311 311 310 310 310 310 310 310 310 310 310 311 311 311 311 312 312 312 313 313 314 314 315 315 315 316 316 316 317 319 321 322 324 326 326 327 327 327 327 329 330 330
312 313 313 313 313 313 313 313 312 312 311 311 311 311 311 310 310 310 309 309 308 308 307 307 307 307 307 307 307 307 307 307 307 308 308 308 309 310 310 310 311 312 313 313 313 314 314 314 314 315 316 317 318 320 322 323 324 326 326 326 327 328 329
311 312 312 312 312 312 311 311 310 310 310 309 309 309 308 308 308 307 306 306 305 305 304 304 304 304 304 304 304 304 304 305 305 305 306 307 307 308 309 309 309 310 311 311 312 312 313 313 313 314 314 315 315 317 319 320 321 323 324 325 326 327 328
310 310 310 310 310 309 309 309 308 308 308 307 307 306 306 305 305 304 304 303 303 302 302 302 302 302 302 301 302 302 302 302 302 303 304 305 306 306 307 308 308 309 309 309 310 310 311 312 312 312 313 313 314 315 316 317 318 319 320 322 324 326 327
309 309 309 308 308 308 307 307 306 306 305 305 305 304 303 303 302 302 301 301 300 300 300 300 299 299 299 299 299 300 300 300 300 301 301 303 305 305 305 306 307 308 308 308 309 309 309 310 310 310 311 311 312 312 313 314 315 316 317 318 320 323 325
308 308 308 307 307 306 305 305 304 304 303 303 302 301 301 300 300 299 299 298 298 298 298 298 298 298 298 298 298 298 298 299 299 300 302 303 304 304 304 305 305 306 306 307 307 308 308 308 308 308 309 309 310 310 311 311 312 313 314 315 316 318 321
307 307 306 305 304 304 303 303 302 301 300 300 299 298 298 298 297 297 296 296 296 296 297 297 297 297 297 297 297 297 298 299 299 300 302 303 304 304 304 304 305 305 305 305 306 306 306 306 306 307 307 307 308 308 309 310 310 310 311 313 314 315 316
306 305 304 303 302 301 301 300 299 298 297 297 297 296 296 296 295 295 295 295 296 296 296 296 296 296 297 297 297 297 298 299 300 301 302 303 303 303 303 304 304 304 304 304 305 305 305 305 306 306 306 306 305 306 307 308 309 310 310 311 313 314 315
304 303 302 300 300 299 298 297 297 297 296 296 296 295 295 295 295 295 295 295 295 296 296 296 296 296 297 297 297 297 298 298 299 301 302 302 302 303 302 303 303 303 303 303 303 303 304 304 305 305 305 304 304 304 305 306 308 309 310 311 312 313 314
301 300 299 298 298 297 296 296 296 295 295 295 295 295 295 295 294 294 295 295 296 296 296 296 296 296 297 297 297 298 298 298 299 300 301 302 302 302 302 302 302 302 302 302 301 301 302 302 303 304 304 304 304 304 305 306 306 307 308 310 311 312 313
299 298 297 297 296 296 295 295 295 295 295 295 295 295 294 294 294 295 295 296 296 296 296 296 296 297 297 297 297 298 298 298 299 300 301 301 301 301 301 301 301 301 301 300 300 300 301 301 301 302 303 303 303 304 304 305 305 305 306 307 309 311 312
297 296 296 296 295 295 295 295 295 294 294 294 294 294 294 294 294 295 296 296 296 296 296 296 297 297 297 297 297 298 298 299 299 300 300 300 300 300 300 300 300 300 299 299 299 299 300 301 300 300 301 301 302 302 303 304 305 305 305 305 306 309 310
296 296 295 295 294 294 294 294 294 294 294 294 294 294 294 294 295 296 296 296 296 296 296 296 296 297 297 297 297 297 298 299 299 299 299 300 299 299 299 299 299 299 299 299 299 299 299 300 300 300 300 301 301 301 302 303 304 305 305 304 304 306 307
296 295 294 294 294 294 294 294 294 294 294 294 294 294 294 295 295 296 296 296 296 296 296 296 296 296 296 296 297 297 297 298 298 299 299 299 299 299 299 299 299 299 299 299 298 298 298 299 300 300 301 301 301 301 301 301 302 303 304 303 304 305 306
295 294 294 294 294 294 294 294 294 294 294 294 294 294 294 295 295 296 296 296 296 295 296 295 296 296 296 296 296 296 297 297 298 298 299 299 298 299 298 298 298 298 298 298 298 297 298 299 300 300 301 302 302 301 301 301 301 302 302 303 303 305 306
294 294 294 294 294 294 294 294 294 294 294 294 294 294 294 295 295 296 296 296 296 295 295 295 295 296 296 296 296 296 298 298 298 298 298 298 298 298 298 298 298 298 297 298 297 297 298 299 300 300 301 302 302 301 301 301 301 301 301 302 302 304 306
294 294 294 294 294 294 293 294 294 294 294 294 294 294 294 294 295 295 295 296 296 295 294 295 295 295 295 295 295 296 297 298 298 298 298 298 298 298 297 297 297 297 297 297 297 298 298 299 299 300 300 301 301 301 302 302 301 300 300 301 302 302 304
294 294 294 294 293 294 294 293 293 293 294 294 294 294 294 294 294 294 294 296 296 295 294 294 295 295 295 295 295 295 296 297 298 298 298 298 297 297 297 297 296 296 296 297 297 298 299 299 299 300 300 300 300 301 301 301 300 300 300 300 301 302 303
294 294 294 294 293 293 293 293 293 293 293 293 293 293 293 294 294 294 294 295 296 295 294 294 294 294 294 295 295 295 296 297 297 297 297 297 297 297 297 296 296 296 296 297 297 298 299 299 299 299 299 300 300 300 301 300 300 300 300 300 301 302 303
294 294 294 294 293 293 293 293 293 293 293 293 293 293 293 293 293 294 293 294 295 295 294 293 294 294 294 294 294 295 295 296 297 297 297 297 297 297 297 296 295 296 296 297 297 298 299 299 299 299 298 299 300 300 300 301 301 301 300 301 301 302 302
294 294 294 294 293 293 293 293 293 293 293 293 293 293 293 293 293 293 293 293 294 295 295 294 294 294 294 294 294 295 295 296 297 297 297 297 297 296 296 296 295 295 296 297 297 298 298 298 299 299 298 298 299 299 300 301 301 301 300 301 301 302 302
294 294 293 293 294 293 293 293 293 293 294 294 293 293 293 293 292 292 293 293 293 294 294 294 293 293 294 294 294 294 294 295 296 297 296 296 296 296 296 296 295 295 296 297 297 298 298 298 299 299 298 298 298 298 299 300 299 299 300 301 302 302 302
294 294 294 293 294 294 294 293 293 294 294 294 293 293 293 293 293 292 292 293 293 293 293 293 294 293 293 294 294 294 294 295 296 296 296 296 296 296 296 296 295 295 296 297 297 297 298 298 299 299 298 298 298 298 299 300 299 299 299 301 302 302 302
294 294 294 294 294 294 293 293 294 295 295 294 293 293 293 294 294 294 293 293 293 293 293 293 293 293 293 293 294 294 294 294 295 296 296 296 296 296 295 295 295 295 296 296 296 297 297 298 298 298 298 298 298 298 299 299 299 299 299 300 300 300 301
294 294 295 295 295 294 294 293 294 295 295 294 293 293 294 295 296 296 295 294 294 294 294 293 293 293 293 293 293 294 294 294 294 295 296 295 295 295 295 294 294 294 295 295 296 296 297 298 298 298 298 298 298 298 299 299 299 299 298 299 299 299 300
294 294 295 296 296 296 296 295 295 295 296 297 296 296 295 296 297 297 296 296 295 294 294 294 293 293 293 293 293 293 294 294 294 294 295 295 295 295 294 293 293 294 294 295 295 295 296 297 298 298 298 298 298 298 298 299 300 299 299 298 298 298 300
295 295 297 298 298 297 297 297 297 297 297 298 298 297 297 297 297 297 297 297 296 295 295 295 294 293 292 293 293 293 293 294 293 294 295 295 295 295 294 293 294 294 294 294 295 295 295 297 298 298 298 298 298 298 298 298 299 299 299 298 298 298 299
Wind_Speed
3 3 2 2 2 2 2 3 5 5 5 5 6 8 7 6 5 4 4 4 2 4 4 4 5 6 5 5 7 6 7 8 10 12 12 12 13 13 13 14 15 16 16 17 18 17 20 23 22 18 16 17 17 17 17 16 16 17 19 20 21 21 21
3 3 2 2 2 2 3 5 6 6 8 9 10 10 8 5 4 2 3 4 3 4 4 4 7 7 5 3 4 5 5 6 8 10 11 11 12 13 14 14 14 15 16 18 19 18 18 22 25 23 19 18 18 17 17 15 15 16 17 19 21 21 21
2 2 1 2 3 3 4 5 6 7 8 8 7 7 5 4 3 4 5 6 5 6 5 5 8 8 6 5 6 7 6 5 6 8 10 10 10 12 13 14 14 14 16 17 17 17 17 19 22 24 21 20 21 18 15 14 16 16 17 18 20 20 20
3 3 3 4 5 5 5 4 3 3 3 3 3 4 4 4 5 5 6 6 5 6 6 7 9 8 6 6 8 10 9 8 9 10 11 11 12 12 12 12 13 14 16 17 17 17 18 19 21 24 21 19 22 21 15 15 17 16 17 18 19 20 20
3 4 4 4 4 3 2 1 1 1 2 2 3 4 4 5 7 6 6 7 6 6 7 8 8 7 7 8 10 10 8 8 11 13 14 15 16 16 15 14 14 14 15 15 17 18 19 20 21 23 21 19 21 21 16 15 17 17 18 18 18 19 20
2 3 2 1 1 1 1 2 2 2 3 4 5 5 6 7 8 8 8 8 8 8 9 8 9 9 9 9 10 11 9 8 11 13 14 16 17 17 17 16 16 17 16 16 17 18 19 20 20 22 22 20 20 21 19 18 18 17 17 17 18 19 19
4 4 4 3 3 3 3 3 3 4 6 7 7 8 8 9 10 10 10 10 11 12 12 12 12 12 11 10 10 10 10 10 12 14 15 17 18 17 16 16 17 18 18 18 18 18 19 20 21 22 24 24 23 23 23 21 19 18 17 17 17 18 19
4 4 4 4 4 4 5 6 7 7 8 9 9 9 9 9 10 10 11 12 12 13 13 13 13 12 12 12 11 11 10 10 11 12 14 15 16 16 15 16 18 19 19 19 19 19 19 19 19 20 22 23 23 24 24 22 20 19 19 19 17 17 19
4 4 5 6 6 6 7 8 9 9 9 9 9 9 9 9 10 11 11 12 12 12 13 13 13 13 13 13 13 12 12 11 11 12 12 13 13 14 14 15 17 18 19 21 22 22 22 22 22 22 22 22 21 23 25 23 21 21 19 18 17 16 17
4 5 6 7 7 7 8 9 9 9 9 9 9 9 9 9 10 11 11 11 12 12 13 13 13 13 14 14 14 14 14 13 13 13 13 14 14 14 14 14 15 15 16 18 20 21 23 24 25 24 22 22 22 22 23 24 24 24 21 19 18 16 16
6 7 8 8 8 8 8 9 9 9 9 9 9 9 10 10 11 11 11 11 12 12 12 13 13 13 14 14 15 16 16 16 15 14 14 16 15 15 15 15 15 13 13 15 16 17 19 21 22 21 21 22 24 24 24 26 27 26 24 24 22 20 18
8 9 9 9 9 9 9 9 10 10 10 10 10 11 11 11 11 12 12 13 13 13 14 14 14 14 15 15 16 16 17 17 17 16 15 16 16 15 16 15 14 13 13 15 16 16 17 18 20 21 21 21 22 23 24 26 30 30 26 25 25 22 21
9 10 11 10 10 10 10 10 11 11 11 12 12 12 13 13 13 14 14 14 15 15 16 16 16 16 17 17 17 18 18 18 19 17 16 15 15 16 16 15 14 14 14 16 16 15 15 16 18 19 19 19 19 19 19 22 28 32 31 28 27 25 24
10 11 11 11 11 11 11 12 12 13 13 14 14 14 14 14 15 15 15 16 17 17 18 18 18 18 19 19 19 19 19 19 19 19 17 15 15 16 16 15 15 15 15 16 17 16 15 15 16 18 18 19 19 18 17 19 23 29 32 33 32 30 26
11 11 11 12 12 13 13 14 14 14 15 15 15 15 15 15 16 16 16 17 18 18 19 19 19 20 20 21 21 21 21 21 20 20 19 17 15 16 17 15 15 15 15 16 16 16 17 16 17 20 20 19 20 19 18 18 21 25 31 33 35 36 33
12 12 12 13 14 14 15 15 16 16 16 16 16 16 16 16 17 17 18 19 19 20 20 21 21 22 23 23 23 23 23 23 22 20 18 16 15 16 17 16 16 17 17 17 17 16 17 19 19 20 21 19 20 22 22 21 20 22 27 31 32 34 36
12 12 13 14 15 16 16 16 17 16 17 16 16 17 17 17 18 18 19 20 20 21 22 22 23 24 24 25 25 25 24 23 22 20 16 15 16 16 16 17 17 18 18 19 19 19 20 22 22 22 21 21 21 22 23 23 23 22 25 30 30 29 31
12 13 15 16 17 17 17 17 17 17 17 17 17 18 18 18 19 19 20 21 21 22 22 23 24 25 25 26 26 26 25 23 21 18 15 15 16 16 16 17 17 18 18 19 19 21 23 24 25 25 24 24 22 22 23 25 26 26 26 30 33 32 30
14 15 17 17 17 17 17 17 17 17 17 17 18 18 18 19 19 20 20 21 21 22 23 24 25 26 26 27 28 27 26 24 20 16 15 16 16 16 16 16 17 17 18 19 20 22 24 26 27 27 27 27 25 25 28 29 29 29 29 31 35 35 32
18 17 18 18 17 17 17 17 17 17 18 18 18 18 18 18 19 20 20 21 22 23 24 25 25 26 27 28 28 27 26 25 21 16 15 15 16 16 16 15 16 17 18 19 20 21 23 26 28 29 29 30 30 31 33 33 33 31 31 32 34 35 35
18 18 18 18 17 17 17 17 18 18 18 18 18 18 18 19 20 20 21 22 22 23 24 25 26 27 28 27 27 27 26 24 22 18 16 15 16 16 16 16 16 17 18 19 20 21 23 26 29 30 30 32 34 35 35 36 36 35 33 32 34 36 37
18 18 18 18 18 18 18 18 18 18 18 18 18 19 19 19 20 20 21 22 22 23 24 25 27 27 27 27 27 25 22 20 20 19 17 16 16 16 17 16 16 18 20 21 24 26 25 26 29 32 33 33 35 36 37 36 36 36 34 31 32 34 34
19 18 18 18 18 18 18 19 19 19 19 19 19 20 19 19 20 21 21 21 22 23 23 24 24 25 26 26 26 25 21 19 19 19 17 17 16 16 17 16 17 19 20 22 26 28 29 29 29 31 33 34 35 36 36 35 35 35 33 30 30 30 30
18 18 19 19 19 19 19 20 19 19 20 20 20 20 20 20 21 21 21 21 21 22 22 23 22 23 25 25 25 25 23 21 20 19 18 17 16 17 18 18 18 18 19 23 24 26 32 35 32 31 32 33 34 34 33 33 33 33 32 32 32 32 30
18 19 19 19 20 20 20 20 20 20 21 21 21 21 21 21 21 21 20 20 21 21 21 21 21 22 24 23 24 25 23 21 20 18 17 17 16 17 18 19 20 19 22 26 24 26 35 39 36 34 33 33 34 34 33 32 32 33 33 33 34 35 34
19 19 20 20 20 20 20 21 22 22 22 22 21 21 21 21 20 19 19 18 19 20 20 21 21 22 23 22 24 24 20 18 18 17 16 17 17 17 19 21 22 24 28 29 26 30 39 42 40 38 36 36 36 36 36 35 32 31 31 31 33 36 36
19 20 21 21 21 21 22 23 23 23 23 22 22 22 21 21 20 19 18 15 16 19 21 21 21 22 23 23 24 25 20 16 16 16 16 17 17 17 19 21 21 26 32 32 30 35 40 41 42 40 39 38 39 39 39 35 29 27 27 29 32 35 35
19 20 20 21 22 22 23 24 25 24 23 23 23 22 21 20 19 19 18 15 14 17 21 21 21 22 23 23 25 27 24 18 15 16 17 17 18 17 18 20 20 25 32 33 33 37 39 39 40 38 37 38 38 39 38 32 28 28 28 29 30 32 34
19 20 20 22 23 24 24 25 25 25 25 24 24 23 21 20 19 18 18 17 15 16 20 21 21 22 23 24 26 28 26 20 16 17 18 18 19 18 19 20 21 24 30 33 34 35 35 36 36 35 34 35 36 38 37 33 31 32 30 28 28 29 30
19 20 21 22 23 24 25 25 26 26 25 25 24 23 22 21 20 19 19 18 16 16 19 22 22 23 24 26 27 28 26 21 17 18 19 19 20 19 20 23 24 26 30 31 33 35 34 33 34 33 33 34 36 37 36 35 35 32 29 26 26 25 26
19 20 21 22 23 24 24 25 26 25 25 25 24 24 23 22 21 20 20 20 18 15 17 21 23 24 25 26 27 28 27 22 18 19 20 20 20 20 21 24 27 28 28 30 32 34 33 31 32 32 33 34 35 35 34 35 34 32 28 25 23 22 23
19 20 21 22 22 23 23 24 25 24 23 22 23 23 23 22 22 22 20 20 19 18 18 20 23 24 25 26 27 28 29 25 19 18 21 20 20 21 21 23 26 27 27 28 31 32 32 31 30 30 33 34 34 34 33 33 33 31 28 25 22 22 22
19 19 20 21 21 21 21 22 23 23 21 21 21 22 23 23 23 23 21 19 19 20 21 21 22 24 25 26 27 27 29 27 20 17 20 20 20 22 22 22 25 27 26 27 30 32 33 32 29 28 30 32 34 34 32 31 32 31 28 25 23 23 23
19 19 19 19 20 20 20 20 20 20 19 20 21 22 23 22 21 21 22 21 19 19 21 22 22 23 23 25 26 26 28 28 22 17 19 20 20 21 22 21 24 27 27 28 31 32 33 34 30 27 28 30 32 32 32 32 33 33 29 26 24 24 23
18 19 18 17 17 17 18 18 18 18 17 19 21 22 22 20 18 17 20 21 20 19 20 21 22 22 22 24 25 25 25 26 23 18 16 19 20 20 21 23 26 28 28 30 34 34 35 35 32 26 27 30 32 32 33 33 35 36 35 31 30 28 25
17 18 17 15 15 15 15 15 16 16 16 15 16 18 19 18 16 15 16 18 19 20 19 20 21 22 22 22 24 24 22 24 24 20 16 16 18 19 22 25 28 30 30 31 34 36 37 37 34 28 28 32 34 35 35 35 36 39 39 37 37 35 30
15 15 14 12 11 12 12 12 12 14 14 13 12 13 14 15 14 15 14 15 17 18 18 18 20 22 23 22 23 24 22 22 24 22 17 14 14 18 24 26 28 32 34 31 30 32 34 36 35 33 32 34 37 38 38 38 38 40 41 42 42 39 34
Wind_Direction
172 191 192 176 192 217 250 281 292 293 300 303 301 309 320 326 327 330 324 327 338 319 323 327 310 303 305 316 317 307 301 303 303 301 302 303 304 303 301 297 292 292 293 288 285 290 293 293 293 290 288 284 275 271 270 266 260 259 260 262 265 265 261
161 169 166 213 242 265 278 281 284 284 288 292 295 301 315 334 334 323 306 302 301 308 317 319 312 305 290 286 306 300 289 293 298 298 298 299 300 301 301 300 298 296 295 291 293 294 287 287 294 297 296 292 283 276 275 274 267 260 258 258 260 262 260
150 183 220 242 253 266 272 278 283 282 287 298 310 316 334 348 311 289 303 312 319 328 336 329 327 327 304 280 281 278 264 261 277 283 285 287 290 293 295 297 298 297 298 298 297 296 290 287 292 297 300 296 289 285 282 283 276 266 262 259 257 257 256
167 194 213 224 237 247 255 269 284 295 310 337 352 342 348 340 319 320 328 334 335 332 333 326 331 343 332 312 306 292 270 253 260 268 270 271 278 286 287 291 297 295 297 299 296 294 293 291 290 293 298 296 293 292 287 284 279 269 266 262 257 255 251
177 182 202 218 234 245 254 307 5 30 17 15 11 356 347 338 341 351 344 337 333 321 318 320 327 334 325 321 322 315 295 264 264 270 272 273 277 281 278 278 287 291 291 292 294 295 294 293 293 293 295 295 296 296 292 286 281 273 268 263 259 256 250
141 133 154 162 125 89 66 57 51 43 39 33 27 21 13 4 7 11 1 353 353 346 342 342 343 341 331 322 320 320 311 289 283 284 285 287 287 285 279 275 279 284 284 285 290 294 295 296 294 292 294 295 294 294 292 288 283 277 271 265 262 259 251
95 89 88 80 63 53 51 54 57 53 51 48 40 33 27 20 19 19 14 11 8 6 6 5 5 2 356 345 334 331 321 303 297 295 295 296 296 292 285 281 282 283 284 285 286 291 296 298 294 292 294 294 292 291 290 288 283 279 274 270 266 263 259
84 73 66 62 56 57 61 65 67 63 58 53 47 40 34 28 26 24 21 19 17 17 14 12 12 9 5 1 353 348 344 332 320 310 307 306 305 304 297 287 284 284 286 287 287 288 290 292 293 295 297 297 295 292 291 289 285 279 277 278 276 266 265
64 57 59 63 68 74 76 74 72 68 62 56 50 45 41 35 31 29 27 25 21 18 15 12 11 7 4 2 356 352 351 346 341 334 328 326 322 320 315 306 297 292 289 286 285 285 283 282 285 288 291 294 295 293 293 292 288 285 284 285 284 270 261
61 66 72 75 80 82 83 82 77 72 66 59 54 50 46 42 37 35 31 27 21 15 12 8 5 2 360 357 353 349 346 343 341 339 335 332 328 326 324 321 316 311 304 297 292 290 287 286 286 287 288 287 287 290 293 292 287 284 283 281 281 277 266
80 83 86 89 90 89 86 84 80 75 69 62 58 52 47 44 40 37 31 24 19 14 10 6 3 1 359 358 356 353 349 346 345 343 340 337 334 331 329 326 323 320 316 312 309 305 301 298 296 294 292 286 281 283 288 291 289 284 283 284 279 276 275
87 91 94 97 95 91 86 82 79 76 70 64 58 52 49 46 40 36 31 26 23 19 17 15 12 9 8 6 4 2 359 356 354 350 348 346 342 338 336 333 329 325 321 318 316 314 311 308 304 301 300 295 287 285 285 287 288 283 282 286 283 277 275
90 94 97 96 92 90 85 81 78 72 67 62 56 52 48 46 43 38 35 32 30 28 26 23 21 20 19 16 13 10 8 7 4 359 355 352 349 345 342 339 336 332 328 326 323 320 318 314 311 309 307 304 299 296 293 288 285 282 278 277 279 280 279
93 93 94 91 86 84 80 75 71 66 62 58 54 52 49 48 47 44 41 39 36 34 32 28 27 26 25 22 20 17 15 13 11 7 3 359 354 351 348 343 339 337 334 332 330 328 325 321 319 317 315 312 307 304 302 295 290 288 283 276 273 274 276
92 91 91 86 79 74 71 68 67 65 63 61 59 57 54 52 51 48 44 41 38 36 33 30 28 27 25 23 21 19 17 15 13 11 8 2 357 355 352 346 342 340 337 335 333 331 328 326 323 320 319 317 313 308 306 302 297 294 290 284 276 271 269
93 92 88 83 78 75 73 71 71 70 67 65 63 60 56 53 49 46 43 40 38 36 33 31 29 27 25 23 21 19 18 16 12 9 5 359 355 353 350 348 344 341 339 336 334 333 330 328 326 324 321 320 316 312 309 307 302 298 295 292 287 280 275
92 90 86 83 82 81 79 77 74 71 68 65 62 58 54 51 47 44 42 40 37 35 34 32 30 28 26 23 21 20 18 16 14 9 3 356 352 349 347 345 342 340 339 337 334 333 331 328 327 326 323 320 318 313 311 309 304 301 297 295 294 290 284
91 89 89 87 86 83 80 77 74 70 67 63 59 56 52 50 47 44 43 41 38 35 34 32 30 28 26 23 21 20 18 16 14 9 0 354 350 348 346 344 341 339 338 336 334 330 327 325 324 323 321 320 318 314 311 309 306 303 299 296 296 295 292
94 92 91 89 85 82 78 75 71 68 65 61 58 56 52 50 49 47 46 43 39 36 33 32 30 27 25 23 21 20 18 15 13 9 1 354 351 349 347 344 341 340 338 335 333 328 324 323 321 320 319 319 317 314 311 311 309 306 301 298 297 297 296
97 94 91 88 84 80 77 73 70 67 65 62 58 55 53 51 50 50 48 44 39 36 33 31 29 27 25 22 20 20 18 13 10 8 1 355 353 352 349 346 343 341 339 336 334 331 328 325 322 320 319 318 316 314 313 312 310 307 303 300 298 297 296
97 93 88 85 82 78 75 72 70 67 64 62 59 57 55 54 52 51 49 46 41 36 32 29 26 24 23 21 20 22 21 16 11 8 2 357 356 355 353 350 345 342 341 340 340 338 333 332 331 326 323 321 319 316 314 312 310 308 305 301 298 297 295
94 90 85 82 79 76 74 71 69 67 65 63 62 60 59 58 57 56 52 48 43 37 32 28 23 20 19 18 19 22 22 16 12 8 2 360 359 357 356 353 348 344 344 345 345 343 339 338 337 333 329 327 323 320 315 311 308 307 305 299 297 297 294
92 87 84 81 77 74 73 71 70 68 67 66 64 63 63 63 62 60 54 48 43 37 33 29 24 19 18 16 17 22 23 16 13 9 3 1 1 359 358 354 348 347 347 346 343 342 341 340 337 333 331 330 327 323 319 313 309 308 305 299 294 293 290
92 87 83 80 78 76 74 73 72 71 70 68 66 66 65 63 62 59 55 48 43 39 34 29 25 20 20 18 15 21 24 18 14 9 3 2 2 359 358 354 351 350 347 345 342 338 338 340 338 335 332 331 329 328 324 318 312 309 306 300 296 293 287
93 89 86 82 80 79 77 76 74 72 71 68 66 66 64 62 61 58 56 50 44 41 35 30 26 22 22 20 16 21 25 19 13 8 3 3 2 358 357 354 354 353 348 346 343 334 334 337 339 337 334 331 330 330 327 319 311 307 306 303 299 296 291
95 92 89 86 84 82 80 78 75 72 70 68 65 64 61 60 59 57 55 51 44 41 36 31 27 24 24 21 19 24 25 17 12 8 3 3 1 359 358 354 353 353 351 349 344 336 335 336 336 337 335 333 332 330 328 322 314 308 307 303 297 294 292
96 94 92 89 86 83 80 78 75 72 69 67 64 62 59 57 56 55 55 52 43 39 36 31 27 26 26 22 23 27 26 16 12 9 5 4 2 360 358 355 352 352 352 351 346 341 339 336 336 336 335 333 332 331 329 326 319 310 304 298 292 289 290
100 96 93 89 85 82 79 77 75 72 69 67 64 61 58 54 51 50 50 51 44 36 33 30 26 27 27 24 26 30 27 18 14 11 7 5 3 360 358 356 353 350 351 351 348 344 340 336 336 336 334 333 333 333 331 327 318 312 306 300 293 288 288
102 97 93 89 84 80 78 76 74 70 67 66 63 61 58 54 50 46 43 47 46 34 29 29 26 27 27 25 29 32 25 16 15 13 9 6 4 1 358 358 355 351 352 353 350 346 341 338 340 339 335 334 335 335 334 330 322 317 312 306 299 292 288
104 98 93 89 84 81 77 75 73 70 67 65 63 61 58 54 51 46 41 43 45 35 27 27 25 26 28 27 30 32 25 16 16 15 9 6 5 2 357 356 354 352 353 354 353 350 347 346 348 346 341 338 337 337 337 333 327 322 318 313 307 302 298
105 99 94 90 85 81 78 75 72 70 66 64 63 61 58 54 50 47 42 41 44 38 28 26 25 26 27 27 31 32 25 19 18 14 9 6 4 4 0 355 351 351 355 357 357 356 355 354 355 355 351 347 342 340 340 338 334 329 326 324 318 314 310
105 99 94 91 86 81 78 74 72 70 66 63 62 60 58 55 49 46 43 40 42 41 33 27 25 26 26 26 30 31 25 21 20 13 8 6 3 3 4 357 351 353 358 1 1 2 2 359 358 359 357 354 350 347 346 347 347 343 337 336 335 331 328
106 100 94 90 87 82 79 75 72 70 67 63 61 58 56 54 48 45 43 40 40 39 35 30 25 25 26 25 27 29 25 21 20 14 8 7 5 4 3 359 356 358 3 6 7 7 6 4 2 2 2 1 359 356 353 356 357 353 347 344 344 344 342
108 102 94 89 87 83 80 77 73 70 67 63 60 57 55 52 47 44 44 42 39 34 31 30 26 23 25 26 25 26 24 21 20 16 9 7 7 5 3 2 4 7 11 13 12 10 8 7 6 8 9 8 5 3 2 3 5 3 359 356 358 358 353
109 103 96 91 87 83 79 77 74 72 66 61 58 55 54 52 47 43 42 41 37 31 27 27 25 23 25 28 26 25 23 20 20 20 12 9 9 6 5 10 13 15 18 20 19 16 12 9 9 12 13 11 9 9 9 9 11 11 9 8 9 9 6
110 104 98 93 88 85 81 75 72 71 66 58 54 51 49 48 45 41 40 38 34 32 25 21 22 23 26 27 25 24 22 19 19 22 16 8 6 4 9 18 21 20 21 21 18 15 14 14 14 16 16 14 14 14 14 14 15 14 13 14 15 14 13
111 106 99 93 88 85 82 74 67 66 63 58 54 49 45 44 41 39 39 35 31 30 26 20 19 23 27 28 24 22 22 19 18 21 16 5 1 1 3 12 20 20 19 17 11 7 10 17 21 21 19 17 17 19 19 18 19 18 17 17 18 17 16